Theta_e
294 293 292 292 291 291 291 291 291 290 290 290 290 290 290 290 289 289 289 289 289 289 289 289 289 289 289 289 289 289 289 290 291 291 292 292 293 293 293 294 294 295 296 296 297 297 297 297 297 297 297 297 297 297 297 298 298 299 299 299 300 300 301 301 302 303 303 303 304 304 304 303 303 303 303 303 304 304 304 304 305 305 305 305 305 305
292 292 291 291 291 291 291 291 291 290 290 290 290 290 290 290 289 289 289 289 289 289 289 289 289 289 289 289 289 289 289 289 290 290 290 291 291 291 291 292 292 293 294 294 295 296 296 296 297 297 297 297 297 296 296 297 297 297 297 298 298 298 298 299 300 301 302 303 303 303 303 302 302 302 302 302 302 302 303 303 304 305 305 305 306 306
291 291 291 291 291 291 291 291 290 290 290 290 290 290 289 289 289 289 289 289 289 289 289 289 289 289 289 289 289 289 288 288 289 289 289 289 289 289 289 290 290 291 292 292 293 294 295 295 296 296 297 297 297 297 297 297 297 297 297 297 297 297 297 298 299 300 301 302 302 301 301 301 301 301 301 301 302 302 303 303 304 304 305 305 305 305
292 292 291 291 291 291 291 291 290 290 290 290 290 289 289 289 289 289 289 289 289 288 288 288 288 288 288 288 288 288 288 288 288 288 288 288 288 288 288 288 289 289 290 291 292 292 293 293 294 294 295 296 296 296 297 297 297 297 297 297 297 297 297 298 299 300 301 301 300 300 299 299 299 299 300 300 301 302 302 303 304 304 305 305 305 305
291 291 291 291 291 291 290 290 290 290 289 289 289 289 289 289 289 289 289 288 288 288 288 288 288 288 288 288 287 287 287 287 287 287 287 287 287 287 288 288 288 289 289 290 290 291 292 292 292 293 293 294 294 294 295 295 295 296 296 296 297 298 298 299 300 300 300 300 299 298 298 298 298 298 298 299 299 300 301 302 303 303 304 304 305 305
291 291 290 290 290 290 290 289 289 289 289 289 289 289 289 289 289 288 288 288 288 288 288 288 288 288 287 287 287 287 287 287 287 287 287 287 287 287 287 288 288 289 289 289 290 290 291 291 292 292 292 293 293 293 294 294 294 295 295 296 297 298 299 299 299 299 299 299 298 297 297 296 296 296 296 296 297 298 299 300 301 302 303 303 304 304
290 290 290 289 289 289 289 289 289 289 289 288 288 288 288 288 288 288 288 288 288 287 287 287 287 287 287 287 287 287 287 287 287 287 287 287 287 287 287 288 288 288 288 289 289 289 290 290 291 291 291 292 292 293 293 294 294 295 295 296 297 297 297 298 298 298 298 297 297 296 296 295 295 295 295 295 295 296 297 298 299 300 301 302 303 303
290 289 289 289 289 288 288 288 288 288 288 288 288 288 288 288 288 288 288 288 287 287 287 287 287 287 287 287 287 287 287 287 287 287 287 287 287 287 287 288 288 288 288 288 288 289 289 289 290 290 290 290 290 291 291 292 293 294 294 295 295 295 296 296 296 296 296 296 295 295 294 294 294 294 294 294 294 295 295 296 297 299 300 301 302 302
289 289 288 288 288 288 288 288 288 288 287 287 287 287 287 287 287 287 287 287 287 287 287 287 287 287 287 287 287 287 287 287 287 287 287 287 287 287 287 287 287 288 288 288 288 288 288 288 288 288 288 288 288 289 289 290 290 291 292 293 293 294 294 294 294 294 294 294 294 294 293 293 293 293 293 293 294 294 294 295 296 297 298 299 300 301
288 288 288 288 288 288 288 288 287 287 287 287 286 287 287 287 287 287 287 287 287 287 287 287 287 287 287 287 287 287 287 287 287 287 287 287 287 287 287 287 287 287 287 287 287 287 288 288 287 287 287 287 287 287 287 288 288 288 289 290 290 291 291 292 292 292 292 292 292 292 292 292 292 292 293 293 293 294 294 295 295 296 297 298 298 299
288 288 288 288 287 287 287 287 287 287 286 286 286 286 286 287 287 287 287 287 287 287 287 287 287 287 287 287 287 287 287 287 287 287 287 287 287 287 287 286 286 286 286 286 287 287 287 287 287 287 287 287 287 287 287 287 287 287 287 287 287 288 288 289 289 289 290 290 291 291 291 292 292 292 292 293 293 293 294 294 295 295 296 296 297 297
288 288 288 288 287 287 287 287 287 286 286 286 287 287 287 287 287 287 287 287 287 287 287 287 287 287 287 287 287 287 287 287 287 287 287 287 287 286 286 286 286 286 286 286 286 286 286 287 287 287 287 287 287 287 287 287 287 287 287 287 287 287 287 288 288 289 290 290 290 291 291 292 292 292 293 293 293 293 294 294 294 294 295 295 295 296
288 288 288 288 288 288 287 287 287 287 287 287 287 287 287 287 286 286 286 286 287 287 287 287 286 287 287 287 287 287 287 287 287 287 287 286 286 286 286 286 286 286 286 286 286 286 286 286 287 287 287 287 287 287 287 287 287 287 287 287 287 288 288 289 289 290 290 291 291 291 292 292 292 293 293 293 293 293 294 294 294 294 294 294 295 295
288 288 288 288 288 288 288 287 287 287 287 287 287 287 287 286 286 286 286 286 286 286 286 286 286 287 287 287 287 287 287 287 287 287 287 287 286 286 286 286 286 286 286 286 286 286 286 286 286 287 287 287 287 287 287 287 287 287 287 288 288 289 289 290 290 291 291 291 291 292 292 292 292 292 292 293 293 293 293 293 294 294 294 294 294 294
288 288 288 288 288 288 288 287 287 287 287 287 287 287 286 286 286 286 286 286 286 286 286 286 286 287 287 287 287 287 287 287 287 287 287 287 287 286 286 286 286 286 286 286 286 286 286 286 286 287 287 287 287 287 287 287 287 287 287 288 289 289 289 290 290 290 290 291 291 291 292 292 292 292 292 292 292 292 293 293 293 293 293 294 294 294
287 287 287 287 287 287 287 287 287 287 287 287 286 286 286 286 286 286 286 287 286 286 287 287 287 287 287 287 287 287 287 287 287 287 287 287 287 286 286 286 286 286 286 286 286 286 286 286 286 287 287 287 287 287 287 287 287 287 288 288 289 289 289 289 290 290 290 290 291 291 291 291 292 292 292 292 292 292 292 292 293 293 293 293 294 294
287 287 287 287 287 287 286 286 286 286 286 286 286 286 286 286 286 286 286 287 287 287 287 287 287 287 287 287 287 287 287 287 287 287 287 287 287 286 286 286 286 286 286 286 286 287 287 287 287 287 287 287 287 287 287 287 287 288 288 288 288 289 289 289 290 290 290 290 290 291 291 291 291 291 291 292 292 292 292 292 292 293 293 293 293 294
286 286 286 286 286 286 286 286 286 286 286 286 286 286 286 286 286 286 287 287 287 287 287 287 287 287 287 287 287 287 287 287 287 287 287 287 286 286 286 286 286 286 286 287 287 287 287 287 287 287 287 287 287 287 287 287 287 288 288 288 288 289 289 289 289 290 290 290 290 290 291 291 291 291 291 292 292 292 292 292 292 293 293 293 293 293
286 286 286 286 286 286 286 285 285 286 286 286 286 286 286 286 286 286 287 287 287 287 287 287 287 287 287 287 287 287 287 287 287 287 287 286 286 286 286 286 286 286 286 287 287 287 287 287 287 287 287 287 287 287 287 287 287 288 288 288 288 288 289 289 289 289 290 290 290 290 291 291 291 291 291 291 292 292 292 292 292 292 293 293 293 293
285 285 285 285 285 285 285 285 285 285 286 286 286 286 286 286 286 286 286 287 287 287 287 287 287 287 287 287 287 287 287 286 286 286 286 286 286 286 286 286 286 286 287 287 287 287 287 287 287 287 287 287 287 287 287 287 287 287 288 288 288 288 288 288 289 289 290 290 290 290 291 291 291 291 291 291 291 292 292 292 292 292 292 292 292 292
285 285 285 285 285 285 285 285 285 285 286 286 286 286 285 285 285 286 286 286 286 286 286 286 286 286 286 286 286 286 286 286 286 286 285 285 285 285 286 286 286 286 287 287 287 287 287 287 287 287 287 287 286 287 287 287 287 287 287 288 288 288 288 288 289 289 290 290 290 290 291 291 291 291 291 291 291 291 292 292 292 292 292 292 292 292
284 284 284 284 285 285 285 285 285 285 285 285 284 284 284 284 284 284 284 284 284 284 285 285 285 285 285 285 285 285 285 285 285 285 285 285 285 285 286 286 286 286 287 286 286 286 287 287 286 286 286 286 286 286 287 287 287 287 287 287 287 288 288 288 288 289 289 290 290 290 290 290 291 291 291 291 291 291 291 292 292 292 292 292 292 292
284 284 284 284 284 284 284 284 284 284 284 283 283 283 283 283 283 283 283 283 283 284 284 284 284 284 284 284 284 284 284 284 284 285 285 285 285 286 286 286 286 286 286 286 286 286 286 286 286 286 286 286 286 286 286 286 286 286 287 287 287 287 288 288 288 289 289 289 289 289 290 290 290 291 291 291 291 291 291 291 291 291 291 291 291 291
284 284 284 284 284 284 283 283 283 283 283 283 283 283 283 283 283 283 283 283 283 283 283 283 283 283 283 283 283 284 284 284 284 284 284 285 285 285 285 285 285 285 285 285 285 285 285 285 285 285 285 285 285 285 285 286 286 286 286 287 287 287 288 288 288 288 288 289 289 289 289 289 290 290 291 291 291 291 291 291 291 291 291 291 291 291
284 284 283 283 283 283 283 282 283 282 282 282 282 282 282 282 282 282 282 282 282 282 282 282 283 283 283 283 283 283 283 283 283 284 284 284 284 284 284 284 284 284 284 284 284 284 284 285 285 285 285 285 285 285 285 286 286 286 287 287 287 287 288 288 288 288 288 288 288 289 289 289 290 290 291 291 291 291 291 291 291 291 291 291 291 291
283 282 282 282 282 282 282 282 282 282 282 282 282 282 282 282 282 282 282 282 282 282 282 282 283 283 283 283 283 283 283 283 283 283 283 283 283 283 283 284 284 284 284 284 284 284 285 285 285 285 285 285 285 286 286 286 286 286 287 287 287 287 287 288 288 288 288 288 288 288 289 289 289 290 290 290 291 291 291 291 290 290 290 290 290 290
281 281 281 281 280 280 280 281 281 281 281 281 281 281 281 282 282 282 282 282 282 282 282 282 282 282 282 282 282 282 282 283 283 283 283 283 283 283 283 284 284 284 284 284 284 285 285 285 285 285 285 285 285 286 286 286 286 286 286 287 287 287 287 287 287 287 287 287 287 287 287 288 288 288 289 289 290 290 290 290 290 290 290 289 289 289
280 280 280 279 279 279 279 279 279 279 279 280 280 281 281 281 281 281 281 281 281 281 281 281 281 282 282 282 282 282 282 282 282 283 283 283 283 283 283 284 284 284 284 284 284 284 284 284 284 285 285 285 285 285 285 285 285 285 286 286 286 286 286 286 286 286 286 286 286 286 286 286 287 287 287 288 288 288 289 289 289 289 289 289 289 289
279 279 279 279 279 279 279 279 279 279 279 279 280 280 281 281 281 281 280 280 280 280 280 281 281 281 281 281 281 281 282 282 282 282 282 282 282 283 283 283 283 284 284 283 283 283 283 284 284 284 284 284 284 285 285 284 284 284 284 284 284 284 284 285 285 285 285 285 285 285 286 286 286 286 287 287 287 287 287 288 288 288 288 288 288 288
279 278 278 278 278 278 278 279 279 279 279 279 279 280 280 280 280 280 280 280 280 280 280 281 281 281 281 281 281 281 282 282 282 282 282 282 282 282 282 283 283 283 283 283 283 283 283 283 283 284 284 284 284 284 284 284 284 284 284 284 284 284 284 284 284 284 284 285 285 285 285 285 286 286 286 286 286 287 287 287 287 288 288 288 288 289
278 278 278 278 278 278 278 278 278 278 279 279 279 279 279 279 279 279 280 280 280 280 280 281 281 281 281 281 281 281 282 282 281 281 281 282 282 282 282 282 282 282 282 282 282 283 283 283 283 283 283 283 283 283 283 283 283 283 283 283 284 284 284 284 284 284 284 284 285 285 285 285 285 286 286 286 286 286 287 287 287 288 288 288 289 289
278 278 278 278 278 278 278 278 278 278 278 279 279 279 279 279 279 279 280 280 280 280 280 280 280 280 280 280 281 281 281 281 281 281 281 282 282 282 282 281 281 281 281 281 281 282 282 283 283 282 282 282 282 283 283 283 283 283 283 283 283 284 284 284 284 284 284 284 284 285 285 285 285 285 286 286 286 286 286 287 287 287 288 288 289 289
277 278 278 278 278 278 278 278 278 278 278 278 279 279 279 279 279 279 279 279 279 279 279 279 279 280 280 280 280 280 280 280 280 281 281 281 281 281 280 280 281 281 281 281 281 281 281 282 282 282 282 282 282 282 282 282 283 283 283 283 283 283 283 283 283 284 284 284 284 284 284 284 285 285 285 285 286 286 286 286 287 287 287 288 288 289
277 277 278 278 278 278 278 278 278 278 278 279 279 279 279 279 279 279 279 279 279 279 279 279 279 279 279 279 279 279 279 279 280 280 280 280 280 280 280 280 280 280 280 280 280 280 281 281 281 281 281 282 282 282 282 282 283 283 283 283 283 283 283 283 283 283 283 283 284 284 284 284 284 284 285 285 285 285 286 286 286 286 287 287 288 288
277 278 278 278 278 278 279 279 279 279 279 279 279 279 279 279 279 279 278 278 278 278 278 278 278 278 278 278 278 278 279 279 279 279 279 279 279 279 279 279 279 279 279 280 280 280 280 280 281 281 281 281 282 282 282 282 282 282 283 283 283 283 283 283 283 283 283 283 283 283 283 283 284 284 284 284 284 285 285 285 286 286 286 287 287 287
278 278 278 279 279 279 279 279 279 279 279 279 279 279 278 278 278 278 278 278 278 278 277 278 278 278 278 278 278 278 278 278 278 278 278 278 278 278 278 279 279 279 279 279 280 280 280 280 281 281 281 281 281 281 282 282 282 282 282 282 282 283 283 283 283 283 283 283 283 283 283 283 283 283 284 284 284 284 285 285 285 285 286 286 286 287
278 279 279 279 279 279 279 279 279 279 279 279 278 278 278 278 278 278 278 277 277 277 277 277 277 277 277 277 278 278 278 278 278 278 278 278 278 278 278 278 278 279 279 279 279 280 280 280 280 280 281 281 281 281 282 282 282 282 282 282 282 282 282 282 283 283 283 283 283 283 283 283 283 283 284 284 284 284 284 285 285 285 285 286 286 286
279 279 279 279 279 279 279 279 279 279 279 278 278 278 278 278 278 278 278 278 277 277 277 277 277 277 277 277 277 277 277 277 278 278 278 278 278 278 278 278 278 279 279 279 279 280 280 280 280 281 281 281 281 281 282 282 282 282 282 282 282 282 282 282 282 283 283 283 283 283 283 283 283 284 284 284 284 284 284 284 284 285 285 285 285 286
279 279 279 279 279 279 279 279 278 278 278 278 278 278 278 278 278 278 278 278 278 278 277 277 277 277 277 277 277 277 277 278 278 278 278 278 278 278 278 278 278 279 279 279 279 279 280 280 280 281 281 281 281 281 281 281 281 281 281 282 282 282 282 282 282 283 283 283 283 283 283 283 283 284 284 284 284 284 284 284 284 284 284 285 285 285
279 279 279 279 279 279 278 278 278 278 278 278 278 278 278 278 278 278 278 278 278 278 278 278 278 278 278 278 278 278 278 278 278 278 278 278 278 278 278 278 278 279 279 279 279 279 279 280 280 280 280 281 281 281 281 281 281 281 281 281 282 282 282 282 282 282 282 283 283 283 283 283 283 283 283 284 284 284 284 284 284 284 284 284 284 285
279 279 279 278 278 278 278 278 278 278 278 278 278 278 278 278 278 278 278 278 278 278 278 278 278 278 278 278 278 278 278 278 278 278 278 278 278 278 278 278 278 279 279 279 279 279 279 279 280 280 280 280 280 280 280 280 281 281 281 281 281 282 282 282 282 282 282 282 282 282 283 283 283 283 283 284 284 284 284 284 284 284 284 284 284 284
278 278 278 278 278 278 278 278 278 278 278 278 278 278 278 278 278 278 278 278 278 278 278 278 278 278 278 278 278 278 278 278 278 278 278 278 278 278 278 278 278 278 279 279 279 279 279 279 279 279 280 280 280 280 280 280 280 281 281 281 281 281 281 282 282 282 282 282 282 282 283 283 283 283 283 283 284 284 284 284 284 284 284 284 284 284
278 278 278 278 278 278 278 278 278 278 278 278 278 278 278 278 278 278 278 278 278 278 278 278 278 278 278 278 279 279 279 279 279 278 278 278 278 278 278 278 278 278 278 278 279 279 279 279 279 279 280 280 280 280 280 280 280 280 281 281 281 281 281 282 282 282 282 282 282 282 283 283 283 283 283 283 283 283 284 284 284 284 284 284 284 285
278 278 278 278 278 278 278 278 278 278 278 278 278 278 278 278 278 278 278 278 278 278 278 278 278 278 279 279 279 279 279 279 279 279 279 278 278 278 278 278 278 278 278 278 279 279 279 279 279 279 279 280 280 280 280 280 280 280 281 281 281 281 281 281 281 282 282 282 282 282 282 282 282 283 283 283 283 283 283 284 284 284 284 284 285 285
278 278 278 278 278 278 278 278 278 278 278 278 278 278 278 278 278 278 278 278 278 278 278 278 279 279 279 279 279 279 279 279 279 279 279 279 279 279 278 278 278 278 278 278 278 279 279 279 279 279 279 279 279 279 280 280 280 280 280 280 281 281 281 281 281 281 281 282 282 282 282 282 282 282 282 283 283 283 283 284 284 284 284 284 285 285
278 278 278 278 278 278 278 278 278 278 278 278 278 278 278 278 278 278 278 278 278 279 279 279 279 279 279 279 279 279 279 279 279 279 279 279 279 279 279 278 278 278 278 278 278 278 278 278 279 279 279 279 279 279 279 279 280 280 280 280 280 281 281 281 281 281 281 281 281 281 282 282 282 282 282 283 283 283 283 284 284 284 284 284 285 285
278 278 278 278 278 278 278 278 278 278 278 278 278 278 278 278 278 278 279 279 279 279 279 279 279 279 279 279 279 279 279 279 279 279 279 279 279 279 279 279 279 278 278 278 278 278 278 278 279 279 279 279 279 279 279 279 280 280 280 280 280 281 281 281 281 281 281 281 281 282 282 282 282 282 282 282 283 283 283 283 284 284 284 285 285 285
278 278 278 278 278 278 278 278 278 278 278 278 278 278 279 279 279 279 279 279 279 279 279 279 279 279 279 279 279 279 279 279 279 279 279 279 279 279 279 279 279 279 279 279 279 279 279 279 279 279 279 279 279 279 279 280 280 280 280 280 280 281 281 281 281 281 281 281 282 282 282 282 282 282 282 283 283 283 283 283 284 284 284 285 285 285
278 278 278 278 278 278 278 278 278 278 278 278 278 279 279 279 279 279 279 279 279 279 279 279 279 279 279 279 279 279 279 279 279 279 279 279 279 279 279 279 279 279 279 279 279 279 279 279 279 279 279 279 279 279 279 280 280 280 280 280 281 281 281 281 281 281 282 282 282 282 282 282 282 282 282 283 283 283 283 283 284 284 284 285 285 285
278 278 278 278 278 278 278 278 278 278 278 278 278 279 279 279 279 279 279 279 279 279 279 279 279 279 279 279 279 279 279 279 279 279 279 279 279 279 279 279 279 279 279 279 279 279 279 280 280 280 280 279 279 279 280 280 280 280 280 281 281 281 281 281 281 282 282 282 282 282 282 282 282 282 283 283 283 283 283 283 284 284 284 284 285 285
278 278 278 278 278 278 278 278 278 278 278 278 278 279 279 279 279 279 279 279 279 279 279 279 279 279 279 279 279 279 279 279 279 279 279 279 279 279 279 279 279 279 279 279 279 280 280 280 280 281 281 281 281 280 280 280 280 281 281 281 281 281 281 282 282 282 282 282 283 283 283 283 283 283 283 283 283 283 284 284 284 284 284 284 285 285
Wind_Speed
8 9 11 13 14 14 13 13 15 18 19 20 21 22 23 24 24 24 24 23 23 23 23 22 22 22 22 21 20 19 18 18 17 17 17 17 17 17 17 16 17 17 17 18 18 19 19 19 19 19 19 18 18 18 19 19 19 19 20 20 20 21 21 22 22 22 22 21 21 21 22 23 24 24 25 25 25 25 24 23 22 21 22 22 24 24
9 10 10 11 13 13 12 12 14 16 18 19 19 20 22 23 23 22 22 22 22 22 21 21 21 20 20 19 19 19 19 18 18 19 19 19 19 19 19 18 18 17 17 17 18 18 19 19 19 19 19 19 19 19 19 18 18 19 19 20 21 21 22 22 22 21 21 21 21 20 20 20 21 22 23 24 25 25 25 24 23 23 23 23 23 23
9 10 9 10 11 11 11 11 13 15 17 17 18 19 21 22 21 20 20 21 21 21 20 19 19 18 18 18 19 20 20 21 21 21 21 22 22 22 21 21 20 20 19 18 18 18 18 18 18 18 19 19 19 19 19 19 19 19 19 20 20 21 21 21 21 21 21 22 22 21 20 20 21 21 22 23 24 24 24 24 24 24 24 24 24 24
10 10 10 10 10 11 11 11 12 14 15 16 17 18 19 19 19 18 19 19 19 19 18 18 17 17 17 18 19 21 22 23 23 23 23 23 23 22 22 22 22 21 21 20 20 19 19 19 18 18 18 18 18 18 19 19 19 19 20 21 21 21 20 20 20 21 21 22 22 21 21 21 21 21 22 23 23 24 24 24 23 23 24 24 24 24
10 10 11 11 11 12 12 12 13 14 14 15 15 16 16 16 16 17 17 18 18 17 17 16 16 16 17 18 20 22 23 24 23 23 22 22 21 21 20 20 20 20 20 20 20 20 20 20 19 19 19 19 19 19 19 19 19 19 20 21 21 21 21 20 20 20 20 20 21 21 21 20 20 21 22 22 23 23 23 23 23 23 23 23 24 24
10 10 11 11 12 13 14 13 13 14 15 15 15 15 15 15 15 15 16 16 16 16 16 16 16 16 16 18 20 22 23 24 23 22 21 20 19 19 19 19 19 18 18 18 19 19 19 19 19 19 19 19 19 19 19 19 19 19 19 19 18 18 18 18 17 17 18 18 19 20 20 20 20 21 22 22 23 23 22 22 22 22 22 23 24 24
11 11 12 12 13 13 13 13 13 13 14 16 16 16 15 15 15 14 14 15 15 16 16 16 16 16 16 17 19 22 23 24 23 21 20 19 18 19 19 19 19 19 18 18 18 17 17 17 18 18 18 18 18 18 18 18 17 17 17 16 16 16 16 16 16 16 16 17 18 19 20 21 21 21 22 22 22 22 22 21 21 22 22 23 23 24
13 13 12 13 13 14 13 12 12 12 14 15 16 17 17 16 15 14 14 14 14 15 16 16 16 16 16 17 19 21 22 22 22 20 19 19 19 19 20 20 20 20 20 19 19 18 18 18 18 18 18 18 18 18 18 17 17 17 17 17 17 17 17 17 17 17 17 18 19 20 21 21 22 22 22 22 22 22 22 21 21 21 21 22 23 23
13 14 13 12 13 13 14 13 12 12 14 15 15 16 16 16 16 16 15 15 14 14 15 16 16 16 16 17 18 19 20 20 19 19 19 19 19 20 21 22 22 22 22 21 21 20 20 20 20 20 20 20 20 20 20 20 20 20 20 20 20 20 20 20 20 20 20 21 21 22 22 23 23 23 23 23 23 22 22 22 22 21 21 21 22 22
13 13 14 13 12 12 12 13 13 13 15 16 16 15 14 15 16 17 17 16 15 14 14 14 15 17 17 17 17 18 18 18 18 19 19 20 21 22 23 24 24 24 24 23 23 23 22 22 22 22 22 22 22 21 21 21 21 21 22 22 23 23 24 24 24 24 24 25 25 25 25 25 25 25 25 24 24 24 23 23 23 22 22 22 22 22
13 12 13 13 12 12 11 12 13 14 16 16 15 13 11 12 13 16 17 17 17 16 15 15 15 16 17 18 17 17 17 17 17 18 20 22 23 24 25 26 26 27 27 27 26 26 25 24 24 24 23 23 22 21 21 20 20 19 20 20 21 23 24 25 26 26 26 26 26 26 26 26 26 26 26 25 25 25 24 24 24 23 23 23 23 23
12 12 12 12 12 12 12 13 14 14 14 14 13 13 12 12 13 14 16 17 17 18 17 17 16 16 16 17 18 17 16 16 16 17 19 22 24 25 26 27 28 28 29 29 29 29 28 26 25 24 24 23 22 21 20 19 18 18 18 18 19 19 20 21 22 23 24 24 25 25 25 25 25 25 25 25 25 24 24 24 24 24 24 24 24 24
10 11 11 12 12 12 12 12 13 13 13 13 12 13 14 14 14 14 15 16 17 17 17 18 18 17 16 17 17 16 16 16 16 16 18 19 21 23 24 25 26 27 28 28 29 29 29 28 27 25 24 24 22 21 19 18 18 18 18 19 19 19 20 20 20 21 21 22 22 23 23 23 23 23 23 23 23 24 24 24 24 24 24 24 24 25
10 10 11 11 12 11 11 12 12 13 13 13 13 14 15 15 15 15 15 16 17 17 17 18 18 18 17 16 16 16 16 17 17 17 18 18 18 20 22 24 24 24 25 25 26 26 27 27 26 25 25 24 23 21 20 19 19 20 20 20 20 20 20 21 21 21 21 21 22 22 22 22 23 23 23 23 23 23 23 24 24 24 24 24 25 25
11 11 11 11 12 12 12 12 13 14 14 14 14 15 15 15 15 16 16 17 18 18 18 19 20 19 18 16 15 16 17 18 18 18 18 19 19 19 21 22 23 22 22 22 22 24 25 25 25 25 25 25 23 22 21 21 21 21 21 21 21 21 22 22 22 22 22 22 22 22 22 22 22 23 23 23 23 23 23 23 23 24 24 24 24 24
11 11 12 12 13 13 13 14 14 15 16 16 16 16 16 16 17 17 17 18 19 19 19 19 19 19 18 17 15 15 17 18 18 17 19 21 21 20 20 22 23 22 22 21 21 22 23 24 24 24 24 25 24 23 22 22 22 22 22 22 22 23 23 23 23 23 23 22 22 22 22 22 22 22 22 23 23 23 23 23 23 23 23 23 23 23
11 11 12 13 13 14 15 14 14 15 16 16 16 16 16 16 17 17 17 18 18 18 17 17 14 13 14 17 17 15 16 18 18 18 20 23 23 23 23 23 23 23 23 22 22 22 22 22 23 23 23 23 24 23 23 23 23 23 23 24 24 24 24 24 24 23 23 23 23 23 22 22 22 22 22 22 22 22 22 22 22 22 22 22 22 22
10 11 12 13 13 14 15 14 15 16 16 17 17 17 17 17 17 17 18 18 18 17 17 17 14 11 11 15 17 17 17 18 18 18 22 24 25 25 24 23 23 23 23 22 22 21 21 21 21 22 23 24 24 24 24 24 24 24 24 25 25 25 25 25 24 24 24 23 23 23 23 23 23 22 22 22 22 22 22 22 21 21 21 21 22 22
10 11 12 13 14 14 15 15 15 16 16 16 17 18 18 18 18 18 18 18 18 18 18 17 16 16 16 17 18 18 18 19 19 20 22 25 26 25 23 22 22 22 22 22 22 21 21 21 22 24 25 26 26 26 26 25 25 25 25 25 25 25 25 25 25 24 24 24 24 23 23 23 23 23 23 22 22 22 21 21 21 21 21 21 21 22
11 11 11 12 14 15 15 15 15 15 16 16 17 18 18 18 18 18 18 18 18 18 18 17 17 18 19 20 20 20 20 21 21 21 23 26 27 25 23 21 21 22 22 22 22 21 20 21 22 23 25 26 27 26 26 25 25 25 25 25 26 26 26 26 25 25 24 24 24 23 23 23 23 23 23 23 22 22 22 21 21 21 21 21 22 22
12 12 13 13 14 15 15 15 16 16 16 17 18 18 19 19 19 19 19 19 19 19 19 19 20 21 21 22 22 23 22 23 23 23 24 25 25 24 22 20 20 21 21 21 21 20 20 20 21 22 23 25 25 24 25 25 25 25 26 26 26 26 26 26 26 25 25 24 23 23 23 23 23 23 23 23 23 22 22 21 21 21 21 21 21 22
12 13 13 13 14 14 15 16 16 16 17 18 18 18 19 19 19 20 20 21 21 21 21 21 22 23 24 25 25 25 23 22 22 22 22 21 22 23 21 19 18 19 20 22 22 21 20 20 21 22 23 24 24 25 25 25 26 26 26 26 26 26 26 26 26 25 25 24 23 23 23 23 23 23 23 23 22 22 22 21 21 21 21 21 21 22
12 13 14 13 13 13 14 16 17 17 18 18 19 19 19 20 20 21 22 22 22 22 23 24 24 25 24 24 24 23 21 18 18 19 19 17 19 22 21 19 19 20 21 22 23 22 21 21 21 21 22 22 23 24 25 25 26 26 26 26 26 26 26 26 26 25 25 24 23 23 23 23 23 23 22 22 22 22 22 22 22 22 22 22 22 22
12 13 13 13 14 15 16 17 18 19 19 19 19 20 20 21 21 21 21 21 22 22 22 23 23 23 22 21 20 19 17 15 15 16 16 17 19 21 21 20 20 21 22 22 22 22 22 22 22 22 22 22 23 23 24 25 25 25 25 26 26 26 26 26 25 25 24 24 23 23 23 23 23 22 22 22 22 22 22 23 23 22 22 22 22 22
11 12 13 14 15 17 18 19 19 20 20 20 20 20 20 20 20 20 20 20 20 19 19 19 19 19 18 18 17 17 16 14 14 14 16 17 19 21 21 20 20 21 22 22 22 22 22 22 23 23 23 23 22 22 23 23 24 24 25 26 26 26 25 25 24 23 23 23 23 23 23 23 23 22 22 22 23 23 24 24 23 23 23 22 22 23
12 13 15 16 18 19 20 21 21 21 21 20 20 19 19 18 18 18 17 17 16 16 16 16 16 16 17 16 16 16 16 15 15 15 16 16 18 19 20 20 19 20 21 22 22 22 22 22 22 22 22 22 22 22 22 23 24 24 25 25 24 24 23 23 22 22 22 22 23 23 23 23 23 23 23 23 23 23 24 24 24 23 23 23 24 25
15 17 18 20 20 21 21 21 21 20 20 19 18 17 17 17 16 15 14 14 14 13 14 13 13 14 15 15 15 16 16 16 15 15 16 16 17 17 18 18 18 19 20 22 22 22 21 22 23 23 23 23 22 22 22 22 22 23 22 22 21 21 21 21 21 22 22 23 24 24 25 25 25 25 24 24 24 24 24 24 24 24 24 25 25 26
20 21 21 22 21 21 20 19 18 17 16 15 15 15 15 14 13 12 12 12 12 13 13 12 11 11 12 13 15 17 17 17 16 15 14 14 14 15 17 18 18 18 20 22 22 23 22 22 22 22 22 21 21 20 20 20 20 21 20 20 20 21 21 22 23 24 25 26 27 27 28 28 28 28 27 27 26 26 26 26 26 26 27 27 26 26
24 24 24 23 21 19 17 16 14 13 12 12 13 13 12 11 11 11 12 12 12 12 12 13 13 12 13 15 17 17 17 16 14 13 13 13 13 16 18 19 18 18 19 21 23 23 23 22 21 20 20 20 20 19 19 19 20 21 22 23 24 25 26 26 27 27 28 28 28 29 29 29 29 29 29 29 28 28 28 28 28 28 28 27 26 25
25 25 24 22 20 17 15 14 13 13 12 12 12 12 11 11 11 12 12 12 11 11 12 13 13 14 15 15 15 14 13 14 13 12 13 13 14 16 18 18 17 17 17 17 16 15 19 22 21 19 19 20 20 20 20 21 22 23 24 25 26 27 28 27 27 27 27 27 27 27 27 27 27 28 28 28 28 28 28 28 28 27 26 25 25 24
24 22 20 19 18 17 16 15 15 15 14 14 13 12 12 12 12 13 13 12 11 11 12 13 14 15 15 13 9 6 7 13 14 13 14 13 14 15 16 16 16 16 16 14 8 5 11 17 20 21 19 20 21 22 22 23 23 24 24 24 25 25 25 25 25 25 25 25 25 25 25 25 25 26 26 26 27 27 27 27 27 26 25 24 23 23
20 19 17 17 17 17 16 16 16 16 16 15 15 14 13 12 12 12 12 11 11 12 13 14 15 16 16 14 10 8 10 15 16 15 15 14 15 16 16 16 18 19 18 17 13 10 8 9 17 23 22 22 23 23 23 23 23 23 24 23 23 23 23 23 23 23 23 23 23 23 24 24 24 24 25 25 26 26 26 26 26 25 24 24 23 23
17 17 16 17 17 16 16 16 16 16 16 15 14 14 13 13 12 12 11 12 12 13 13 14 15 16 16 17 17 16 18 19 18 17 17 16 16 17 18 19 20 20 20 19 19 18 14 14 19 24 24 24 23 22 22 22 22 22 22 22 23 23 23 23 22 22 22 22 22 23 23 23 23 24 24 25 25 26 26 26 26 25 25 24 24 23
16 16 16 16 16 16 16 16 16 15 15 14 13 13 12 12 12 12 12 12 13 14 14 15 15 16 17 17 18 19 20 20 18 17 16 16 16 18 19 19 19 19 19 18 19 19 19 20 21 22 22 23 23 22 22 22 21 21 21 21 22 22 23 22 22 22 22 22 23 23 23 23 23 24 24 25 25 25 26 26 26 26 26 25 25 24
15 14 14 14 15 15 15 14 14 14 13 13 13 12 12 11 12 13 13 13 14 14 15 15 15 16 16 17 17 18 19 20 18 17 16 16 17 18 19 18 18 18 17 17 17 17 17 19 20 20 20 22 23 23 22 21 20 20 21 21 21 21 22 22 22 22 23 23 24 24 24 24 24 24 24 24 24 25 26 26 27 27 27 27 27 26
14 13 13 14 14 14 14 14 14 14 14 14 14 13 13 13 14 15 15 16 17 17 17 17 17 17 17 18 18 19 21 21 20 19 18 18 18 18 18 18 18 18 17 17 18 17 16 18 20 21 20 19 20 21 22 21 20 19 20 20 20 20 21 21 22 22 23 24 25 25 25 25 24 24 24 24 25 25 26 27 27 27 28 28 28 28
13 13 13 14 14 14 15 15 15 15 15 15 15 16 16 16 16 17 18 19 19 19 19 19 19 19 19 20 20 21 22 22 22 22 21 20 20 19 19 19 19 19 18 18 18 18 18 18 19 20 19 18 18 19 21 21 21 20 20 20 20 20 21 22 22 23 23 24 25 25 25 24 24 24 24 25 25 25 26 26 27 27 27 28 29 29
13 13 14 14 14 15 15 15 15 16 16 17 17 18 18 18 18 18 18 19 19 20 20 20 20 21 21 21 22 23 24 25 25 25 24 23 22 21 20 20 20 20 19 18 18 19 18 16 14 12 14 17 19 21 22 22 21 21 22 22 22 22 23 23 23 22 22 23 23 24 24 24 23 23 24 24 24 24 24 24 24 25 25 26 27 28
13 14 14 14 14 15 15 16 16 17 18 18 19 19 19 19 19 18 18 18 18 19 19 20 21 22 23 23 24 24 24 25 25 25 25 24 23 22 21 20 20 20 20 19 19 19 19 18 15 13 12 15 20 23 23 22 22 23 24 25 25 25 24 22 21 21 21 21 22 23 24 24 23 23 23 23 23 23 22 22 22 22 22 22 23 25
14 14 14 15 15 15 15 16 17 18 19 20 20 19 19 18 18 18 17 17 17 17 18 19 20 21 22 22 21 21 22 22 23 23 23 23 23 22 21 21 21 21 20 20 19 19 19 19 20 20 20 19 20 22 23 23 23 23 24 23 23 24 24 22 21 21 22 23 23 24 24 24 23 23 23 22 22 22 22 22 22 21 21 21 21 21
14 15 15 16 16 17 17 18 18 19 19 19 19 18 18 17 18 18 18 18 17 17 17 18 18 19 20 20 20 19 20 21 21 21 21 22 22 22 22 21 21 21 20 20 20 20 20 20 21 22 22 23 23 24 24 25 24 24 23 22 23 25 26 25 24 24 23 24 24 24 24 24 23 23 23 23 23 22 22 22 21 21 21 21 21 20
15 15 16 17 17 18 18 19 19 19 18 17 17 17 17 17 17 18 19 18 18 18 18 18 19 19 20 21 20 19 18 19 19 20 20 20 21 21 22 22 22 21 20 20 20 20 20 20 21 21 22 22 22 23 23 25 25 24 23 23 24 26 26 26 24 22 21 22 22 22 23 23 23 23 23 23 23 23 23 22 22 23 22 22 22 22
15 16 16 17 18 19 19 19 18 18 18 17 18 18 18 17 17 17 18 18 19 19 18 18 19 20 20 21 21 20 18 17 18 18 19 20 20 21 21 22 22 22 21 20 19 20 21 21 21 21 23 22 22 22 24 25 25 25 24 23 23 22 20 23 23 22 20 20 21 22 22 23 23 23 23 24 24 24 24 24 24 24 23 23 23 23
16 17 17 18 18 18 18 18 18 18 18 18 18 18 18 18 18 17 17 18 19 19 19 18 18 19 19 20 21 21 20 19 18 18 18 19 19 20 20 21 21 21 21 20 19 20 21 21 21 22 22 22 22 23 24 25 25 26 26 25 23 22 21 23 24 24 23 23 23 23 23 23 23 23 24 25 25 24 24 24 24 23 24 24 24 24
16 17 17 17 17 17 17 18 18 18 18 18 18 18 18 18 18 17 17 18 18 18 19 18 17 17 18 19 20 21 21 20 19 18 17 18 17 17 18 19 20 20 21 20 20 20 20 20 22 22 22 22 22 23 24 25 25 26 27 26 24 24 25 26 25 24 24 24 24 24 24 23 23 23 24 24 24 24 24 24 24 24 24 24 24 24
15 16 16 17 17 18 18 18 18 18 18 18 18 18 18 18 17 17 17 17 18 18 19 18 17 16 17 18 19 20 21 22 21 20 19 18 18 18 18 19 19 19 19 20 21 22 22 22 23 23 23 23 24 24 25 25 25 25 26 26 25 24 25 25 24 24 23 24 24 24 23 22 22 22 23 24 24 24 24 24 24 24 24 24 24 25
15 16 17 17 17 18 18 18 17 17 17 18 18 18 18 18 17 17 17 18 18 18 18 18 17 16 17 18 18 19 19 21 22 22 22 21 19 18 18 18 18 19 20 21 22 23 24 25 25 25 23 23 23 25 25 25 24 24 25 25 24 24 23 24 24 23 23 23 23 23 23 21 21 21 23 23 24 25 25 25 24 24 24 24 24 25
16 17 17 17 17 17 18 17 17 17 17 18 18 19 18 18 17 17 18 18 18 18 18 18 17 17 17 18 18 19 18 19 21 22 22 22 21 21 19 19 19 19 20 21 22 23 25 27 28 28 26 24 23 24 25 25 24 24 24 24 24 23 23 24 24 24 23 23 24 24 23 21 21 21 22 23 23 24 25 25 24 24 23 23 24 24
17 17 17 17 17 17 17 17 17 17 18 18 19 19 19 19 18 18 17 18 18 18 17 17 17 18 18 18 19 19 19 19 20 21 21 21 21 21 20 20 20 20 20 21 21 22 23 25 27 28 28 27 26 25 26 26 25 24 24 23 23 23 23 24 25 24 22 22 23 24 24 22 22 22 22 22 23 24 26 26 25 25 24 23 23 24
17 17 17 17 17 17 17 18 18 18 18 19 19 19 19 19 19 18 17 17 17 17 17 17 17 17 18 19 19 19 19 19 20 20 20 20 20 19 20 21 21 20 20 20 20 20 19 21 22 24 25 26 26 26 25 25 25 24 23 23 23 23 23 24 24 24 23 22 23 23 24 23 23 22 22 22 23 25 26 27 27 26 25 23 23 24
17 17 17 17 17 17 18 18 18 18 19 19 19 19 19 19 19 19 18 17 17 18 18 18 17 17 18 19 19 19 19 19 19 19 21 21 20 20 20 20 20 20 19 18 17 17 16 15 16 19 21 21 22 24 25 24 23 23 22 23 23 22 23 23 24 24 23 23 23 23 23 23 22 22 22 22 22 23 24 25 27 27 26 23 23 23
Wind_Direction
310 312 314 317 319 319 319 320 320 320 321 323 324 324 324 324 323 323 323 323 323 324 324 324 323 323 323 323 322 322 321 320 319 318 317 316 315 315 315 316 317 316 314 311 308 306 304 302 301 301 300 298 295 293 290 287 285 284 284 284 284 284 284 282 280 278 277 275 274 274 274 275 275 276 277 277 276 275 274 273 273 274 275 275 277 279
313 313 315 319 320 319 317 320 321 322 322 324 324 324 323 324 324 324 325 325 325 326 326 325 325 324 324 323 322 321 320 318 317 315 313 311 309 307 307 308 309 310 311 310 309 307 306 304 302 300 300 298 296 295 293 290 287 286 284 283 282 282 281 279 277 275 274 273 273 273 274 275 277 278 279 279 279 279 278 277 276 274 272 272 272 273
317 316 316 321 323 321 318 320 322 322 322 322 322 322 322 323 323 324 325 326 326 327 327 327 326 326 325 323 322 321 320 319 317 315 313 310 307 305 304 303 302 303 305 306 307 307 306 305 303 301 300 299 298 297 295 294 291 289 287 285 283 282 279 275 271 269 270 270 270 270 271 273 274 275 276 277 276 276 276 275 273 271 269 268 269 269
315 315 317 321 322 319 317 319 321 322 322 322 322 322 323 324 323 323 324 325 327 327 327 327 327 327 325 324 323 322 322 321 320 318 316 314 312 310 308 306 303 302 301 302 302 303 304 303 302 301 300 298 297 296 293 292 290 289 288 286 285 282 279 274 270 268 268 267 267 267 268 270 272 272 273 273 273 273 273 272 271 269 268 267 267 267
312 314 317 321 320 317 317 319 321 322 323 322 323 324 324 323 322 322 323 325 326 327 327 328 328 327 325 324 324 325 325 326 326 325 324 323 322 321 319 315 312 308 305 304 302 301 301 300 300 299 299 297 296 295 293 292 291 289 288 286 284 282 279 276 272 270 267 265 264 264 265 267 268 269 269 270 270 270 271 270 269 268 267 266 266 266
312 314 318 319 317 316 318 319 321 324 325 324 324 324 323 321 321 321 322 324 325 326 327 327 326 326 324 324 325 327 329 331 333 334 334 334 334 333 331 328 324 319 314 311 307 304 302 301 301 300 299 297 296 295 295 295 294 292 290 289 285 280 276 273 270 267 264 262 261 262 264 265 267 267 267 268 269 269 270 270 268 267 266 265 265 265
313 315 319 319 317 316 318 319 323 327 329 328 326 325 323 322 321 321 321 322 324 325 325 325 324 323 323 323 325 328 331 333 335 337 339 340 340 339 338 335 333 329 324 320 316 312 309 308 306 304 302 300 299 297 295 296 294 291 286 283 279 275 272 270 269 266 264 263 264 265 267 268 269 270 270 271 271 272 272 272 270 268 266 265 265 265
317 317 320 321 321 320 319 320 324 330 332 330 328 326 325 323 323 322 321 322 323 324 324 323 323 322 322 323 325 327 329 331 332 333 335 336 336 337 337 337 335 332 329 326 322 318 315 312 309 307 304 302 300 297 295 293 289 284 278 273 271 271 271 272 272 271 271 270 270 270 271 272 273 273 274 274 274 275 274 273 273 272 269 267 266 265
319 319 320 321 323 323 322 321 325 330 332 329 326 324 323 323 323 323 323 323 323 323 323 322 321 321 321 322 324 325 325 325 326 327 327 328 329 331 332 332 332 331 329 326 323 320 316 313 310 308 306 303 301 298 295 291 286 282 278 275 273 273 274 275 276 276 276 276 275 275 275 275 276 276 277 277 277 276 275 274 274 273 272 270 268 266
318 318 319 320 322 323 321 320 322 326 328 325 322 319 318 320 323 325 324 323 323 324 322 321 320 319 319 320 320 321 320 319 320 321 322 323 324 325 326 327 326 326 325 324 322 319 316 314 311 309 307 305 303 300 298 295 291 288 284 281 279 278 277 277 278 278 278 278 278 277 278 278 278 278 278 278 278 277 276 275 274 273 273 271 270 268
318 318 318 319 320 320 318 317 318 321 323 323 321 319 318 321 324 324 323 321 322 323 321 318 317 316 316 316 316 316 315 313 313 315 318 320 321 322 322 322 322 322 322 321 320 318 316 314 312 310 308 306 305 303 301 299 296 295 292 290 288 285 283 281 281 280 279 279 279 279 279 280 280 279 279 279 278 277 276 275 275 273 273 271 270 269
319 319 319 318 319 319 317 316 317 320 322 323 323 323 323 325 325 323 319 317 318 319 319 316 314 311 311 310 310 310 309 306 305 307 311 314 316 318 319 319 319 319 319 318 317 316 315 314 312 310 309 307 306 304 302 300 300 300 302 303 303 300 296 292 288 285 283 282 282 281 281 281 280 280 279 279 278 277 276 275 274 273 273 272 271 271
320 320 319 319 318 319 318 319 320 321 323 324 323 322 321 321 321 319 314 312 313 315 315 313 311 309 307 306 305 304 303 301 301 303 306 308 311 314 315 315 315 315 315 314 313 313 313 313 311 310 308 307 306 305 302 301 301 304 308 311 311 310 306 301 296 292 289 286 284 283 282 281 281 280 279 279 278 277 276 275 274 273 273 272 272 271
325 324 322 320 319 319 319 320 321 320 321 321 319 315 314 315 316 316 313 310 310 312 313 310 309 308 308 306 304 303 302 302 302 303 304 305 307 310 312 311 310 310 310 309 307 306 308 308 307 305 306 306 306 305 304 303 305 307 309 310 309 306 302 300 296 292 289 287 285 284 283 282 281 280 280 279 278 277 276 275 275 274 273 273 272 272
329 326 322 319 317 317 318 318 318 317 316 316 315 314 313 313 315 315 314 311 312 313 313 311 309 309 309 308 308 308 307 305 304 305 305 305 307 309 311 309 307 305 305 302 300 300 302 302 300 300 302 303 304 304 305 305 306 307 307 305 302 299 297 295 293 291 289 287 286 285 284 283 282 281 280 279 278 277 276 275 275 274 273 273 272 272
323 320 316 314 314 314 314 315 315 315 314 315 315 314 314 314 315 315 314 311 312 314 313 312 312 311 310 310 311 311 310 307 306 306 307 306 307 309 310 307 305 302 301 298 296 296 297 297 296 296 297 298 300 302 303 304 304 303 300 299 297 296 296 294 293 291 290 288 286 285 284 283 282 281 280 279 277 276 275 275 274 273 273 273 273 272
315 314 312 312 312 312 314 314 314 314 314 315 315 315 314 313 313 312 311 311 311 311 311 311 311 311 311 311 312 312 311 309 307 306 305 305 305 307 308 304 301 299 298 295 293 292 293 293 293 293 293 294 296 298 299 299 298 297 296 296 296 296 296 295 294 292 291 289 287 286 284 283 282 282 280 279 278 276 275 274 273 273 273 273 273 272
313 313 313 312 312 313 315 315 315 315 316 316 316 314 313 311 310 310 309 308 308 307 307 306 305 304 306 307 309 311 312 310 308 306 305 303 303 304 305 301 297 295 295 293 292 291 290 290 290 291 291 292 293 294 295 295 295 294 294 294 295 295 296 296 295 294 293 291 288 286 285 284 283 282 281 280 278 277 275 274 273 273 273 273 273 273
313 313 313 312 312 313 314 314 314 315 316 315 315 314 312 311 309 308 307 306 304 302 302 302 301 300 300 300 303 308 311 311 309 306 304 301 301 301 302 299 296 293 293 292 291 291 289 288 289 290 291 292 293 293 293 293 292 292 292 293 294 295 296 297 297 296 294 292 290 288 287 285 284 283 282 280 279 277 275 274 274 274 274 275 275 275
311 311 311 312 312 312 311 310 311 313 314 314 314 313 311 310 310 309 307 306 304 302 302 300 299 298 299 299 301 305 309 311 309 305 301 299 299 300 301 298 295 293 292 292 292 291 289 288 288 289 290 291 292 292 291 290 290 291 292 293 294 295 296 297 297 296 295 294 292 290 288 287 285 283 282 280 278 276 275 274 273 274 275 276 276 276
309 308 308 310 310 309 307 307 309 311 313 315 315 313 310 310 309 308 307 306 305 303 301 299 297 297 299 299 299 302 305 306 304 302 300 298 297 298 299 297 294 293 292 293 292 291 289 288 287 287 287 288 288 289 289 289 290 291 292 293 294 294 295 296 296 297 296 295 293 292 290 288 286 284 282 280 278 276 274 274 274 275 276 277 278 278
306 306 307 308 307 305 304 305 308 310 312 314 313 310 307 307 306 305 304 303 302 300 298 296 295 295 296 295 295 297 299 299 297 297 297 296 295 296 298 298 296 294 293 294 294 294 291 288 287 286 285 286 287 288 289 290 290 290 291 292 292 293 294 295 296 296 296 295 294 293 291 290 288 285 283 281 278 276 274 273 274 275 277 279 279 279
305 305 307 308 307 306 306 307 308 309 310 309 307 303 301 301 300 299 299 298 297 295 294 293 293 293 293 292 293 294 296 294 293 293 294 293 293 296 301 302 300 297 295 295 296 296 294 291 289 288 287 287 287 288 288 289 289 290 290 291 292 293 294 295 295 295 295 295 294 294 292 291 288 286 284 282 279 276 274 273 274 275 277 279 280 281
309 308 309 309 308 308 307 308 307 307 307 306 302 299 297 296 294 294 293 293 293 293 293 294 294 293 292 292 293 294 295 295 295 295 293 291 292 297 302 304 302 298 296 297 297 297 296 294 293 291 290 289 288 288 288 288 289 290 290 291 292 293 293 294 294 294 294 294 294 294 293 291 289 287 285 283 280 277 275 274 274 275 277 279 281 282
312 311 310 308 307 307 307 306 305 305 304 303 302 300 298 296 295 293 292 292 292 293 294 295 295 294 295 297 298 297 298 299 299 297 294 292 293 296 300 302 301 298 297 298 299 298 297 296 294 294 292 291 290 290 289 290 290 290 290 290 291 291 292 292 292 293 294 295 295 295 294 293 291 289 287 284 281 279 277 275 275 276 278 281 283 285
307 307 307 306 306 306 305 303 301 301 301 300 300 300 300 299 298 297 295 294 295 297 298 298 295 295 298 300 300 300 301 301 300 297 294 293 294 296 298 299 299 297 297 299 300 300 299 298 297 296 295 294 294 293 292 291 290 290 289 290 290 290 291 291 292 293 294 295 296 296 296 294 293 291 289 287 284 282 279 278 279 281 283 285 286 286
304 304 305 305 305 305 304 303 301 300 300 299 299 300 301 301 301 299 297 297 300 302 302 300 299 299 300 300 300 300 302 303 301 297 295 293 293 294 297 299 299 299 299 299 300 300 300 299 298 298 297 296 295 294 293 292 292 291 290 290 290 290 290 291 292 292 293 293 293 293 293 292 291 290 289 288 287 285 284 283 283 284 286 287 287 285
308 309 309 309 309 308 307 305 303 302 303 303 304 304 304 304 302 299 298 301 304 305 302 299 298 299 300 300 300 300 302 301 299 299 300 299 296 294 297 300 302 302 302 302 301 301 300 298 297 296 296 296 296 295 294 295 296 296 294 292 291 290 290 291 290 290 290 290 289 288 288 287 287 286 286 285 285 285 284 284 284 285 286 285 284 282
314 315 315 315 316 316 316 315 315 316 317 315 313 311 309 307 302 298 298 302 304 303 299 297 296 297 298 299 300 300 299 297 298 302 309 309 301 296 298 300 301 303 305 305 305 303 299 296 295 295 295 296 297 297 296 297 298 297 295 293 291 290 289 289 288 287 287 287 286 285 285 284 284 284 283 283 283 282 282 282 283 283 283 282 280 278
320 321 321 322 324 328 330 331 332 334 334 330 325 321 318 312 305 301 301 302 301 299 297 297 297 298 300 302 302 300 297 296 299 308 315 310 300 296 298 299 301 305 309 310 309 304 300 298 296 295 295 296 297 297 297 297 297 296 294 293 291 290 288 287 287 286 286 285 285 284 284 283 283 282 282 281 281 280 280 280 280 281 280 279 277 275
323 324 324 325 330 335 337 337 337 336 336 336 334 332 327 320 313 308 306 303 299 297 297 298 298 299 300 301 302 298 295 297 302 310 315 306 297 296 301 303 304 306 308 309 310 305 302 301 299 298 297 297 296 295 295 295 294 294 293 292 291 290 289 289 289 288 288 287 286 285 284 283 282 282 281 281 280 280 280 279 279 279 278 277 275 273
324 324 324 326 330 333 334 333 332 332 331 331 331 330 326 321 315 309 304 301 299 299 298 298 298 297 296 294 290 286 288 294 300 308 313 308 301 300 303 303 302 302 302 300 296 293 298 299 300 300 299 298 296 294 293 293 293 292 292 292 291 291 291 291 291 291 290 289 287 286 285 283 282 281 280 280 279 279 278 278 278 278 277 276 274 273
324 324 325 327 328 329 328 327 328 328 326 325 323 321 320 318 313 308 303 301 300 300 298 298 297 296 294 291 287 285 286 289 295 302 309 308 304 301 300 299 299 298 298 296 292 288 286 288 294 298 298 297 295 294 293 293 292 292 291 291 290 290 291 292 292 291 290 289 288 287 286 285 283 281 280 279 278 277 277 276 275 275 274 274 274 274
323 323 324 325 326 325 325 325 325 325 324 322 320 317 316 314 310 307 303 301 300 298 296 294 294 294 293 292 289 287 286 288 293 299 305 305 301 297 297 297 296 297 298 296 293 290 287 287 290 294 297 297 296 294 293 293 293 292 290 289 288 289 290 291 291 290 289 289 288 287 286 285 283 281 279 278 277 276 275 274 273 272 271 271 271 272
322 321 322 323 324 324 324 324 324 323 322 321 319 318 315 311 308 306 303 300 298 295 293 290 288 287 287 288 288 288 287 289 293 297 300 299 296 295 295 294 294 295 296 294 293 293 290 288 290 292 295 296 296 295 294 294 293 293 291 289 288 287 288 289 289 288 288 287 286 285 284 283 282 280 278 277 275 274 273 272 272 270 269 268 267 267
320 320 323 324 325 325 324 324 323 322 321 319 318 317 314 311 307 304 302 300 298 296 293 289 286 282 280 279 280 281 284 287 291 294 294 292 291 291 291 289 290 292 292 291 291 291 291 291 291 292 293 294 295 295 296 296 295 294 292 291 290 289 288 287 286 286 286 285 284 283 282 281 280 278 277 276 274 273 273 273 272 270 269 267 265 264
321 322 324 326 326 325 324 322 321 321 320 319 317 316 313 310 307 304 302 301 300 300 297 294 290 285 281 278 276 277 280 284 287 288 288 288 287 285 284 285 286 287 286 286 288 289 290 291 292 292 291 289 290 293 296 298 298 296 293 293 292 291 290 288 287 286 284 283 282 281 280 279 278 277 277 276 276 275 274 273 271 270 268 267 265 264
323 323 324 324 325 324 322 320 319 319 318 316 315 313 311 309 307 305 304 303 302 301 299 297 294 291 288 283 281 280 281 283 285 286 286 286 284 281 279 281 282 282 281 281 283 286 288 289 290 291 291 289 289 290 293 297 297 296 294 294 293 291 289 288 287 285 283 281 280 280 280 279 278 277 277 276 276 276 274 273 271 269 268 267 266 265
324 323 322 321 321 321 319 317 316 314 313 312 311 310 310 310 309 307 305 304 302 301 300 299 297 295 293 292 289 287 285 284 285 286 286 286 284 281 277 277 279 280 281 280 280 281 283 284 284 286 290 292 293 293 294 294 294 294 295 295 293 290 287 286 285 283 282 281 281 282 282 281 279 277 276 275 274 273 272 271 270 269 267 267 266 266
322 320 318 318 317 316 314 313 311 310 310 310 311 311 311 311 311 309 308 306 304 302 301 300 299 297 296 294 291 287 286 286 286 287 286 286 284 281 277 275 276 279 281 281 280 279 279 281 282 284 286 288 291 292 293 292 291 292 293 294 292 290 288 286 285 283 282 281 280 280 280 279 278 277 275 273 272 271 270 270 269 267 265 265 264 265
318 316 316 315 315 314 313 311 310 310 310 310 311 312 312 312 313 312 311 310 309 307 306 305 303 300 297 294 291 288 286 286 286 285 285 285 285 283 279 275 275 277 280 281 281 279 279 279 281 283 284 285 287 288 288 288 288 288 289 288 287 287 288 287 284 282 280 279 277 277 277 277 277 276 275 274 272 270 268 267 266 265 264 262 260 260
315 313 313 313 313 312 312 312 312 312 312 311 311 311 312 312 312 312 312 311 310 309 310 310 308 305 302 300 298 295 291 289 288 289 289 288 287 286 283 279 276 276 277 278 279 278 277 277 278 279 280 282 284 285 286 286 286 286 284 283 284 286 288 285 283 280 278 276 276 276 276 276 276 276 275 275 274 272 270 268 266 264 262 260 258 257
313 311 310 310 311 312 313 313 314 313 313 312 311 311 311 310 310 309 308 308 308 308 308 308 308 306 303 302 302 301 299 296 295 294 294 292 291 289 286 283 280 278 277 276 276 278 278 277 275 275 277 279 280 281 283 285 286 285 283 281 281 283 285 285 284 283 279 277 276 276 276 276 276 276 276 276 275 274 272 269 266 263 260 259 258 256
310 309 310 311 312 313 314 314 314 314 313 312 310 310 311 310 308 307 305 305 305 305 306 305 305 303 301 301 302 304 305 304 302 299 296 295 293 290 287 285 282 279 276 273 273 277 280 279 277 276 277 277 277 278 280 282 284 284 283 281 278 276 275 278 282 283 282 279 277 276 275 275 276 277 277 276 275 273 271 269 266 263 259 257 255 255
309 310 310 312 313 314 314 313 313 313 312 310 309 308 310 310 308 305 302 302 302 302 303 304 303 302 301 301 303 306 308 308 307 304 301 299 295 291 288 285 282 279 275 272 270 272 274 277 278 279 279 278 275 275 277 279 281 282 282 281 278 275 273 275 277 278 278 277 276 275 274 274 275 275 276 276 275 273 271 269 266 263 261 258 255 253
309 310 311 312 313 313 312 311 310 310 310 310 309 308 308 308 306 303 301 300 299 300 301 302 301 299 298 300 303 306 307 308 309 308 307 304 301 297 293 288 283 278 275 272 270 269 269 270 274 277 280 279 277 275 273 275 276 278 279 280 280 278 277 276 275 274 273 274 274 274 274 273 273 273 273 274 274 273 272 269 266 263 261 259 256 253
311 311 311 311 311 311 310 310 309 307 307 308 308 308 308 307 305 303 302 302 300 299 300 301 298 295 294 296 299 302 304 305 307 308 308 307 304 301 297 293 287 282 278 275 273 271 269 268 269 270 272 275 277 277 276 275 274 274 276 278 279 279 278 277 276 274 273 272 272 272 273 272 271 271 271 273 274 274 273 271 267 264 261 258 256 254
311 310 309 309 308 308 308 308 307 306 306 306 307 308 308 307 305 302 301 301 300 299 300 299 298 296 294 295 297 298 299 300 301 303 305 305 305 303 300 297 294 290 284 280 276 273 271 270 268 266 264 265 268 273 275 275 274 273 274 276 278 278 277 277 277 276 274 272 271 270 270 268 267 268 271 272 274 274 273 271 268 265 261 259 256 254
310 309 308 307 306 306 305 306 306 305 304 304 305 306 307 306 305 303 300 300 299 298 298 297 297 296 296 296 297 298 298 298 298 299 300 301 302 302 302 301 299 296 293 288 283 279 276 274 270 266 261 257 258 264 269 272 273 273 273 274 274 275 275 277 278 277 275 273 271 270 268 264 262 263 266 269 270 272 273 272 270 267 263 260 257 255
309 308 307 306 305 304 304 304 304 304 303 303 303 304 305 306 305 303 301 299 299 297 295 295 294 294 295 296 297 297 297 298 297 297 298 299 300 300 301 302 301 300 298 295 292 289 286 283 279 273 266 258 253 254 259 265 269 271 271 271 271 272 273 275 277 277 275 274 273 271 268 263 260 259 260 262 266 269 271 271 270 268 265 261 258 256
309 308 307 305 304 303 303 303 303 302 301 301 302 302 304 304 304 304 303 300 299 299 297 295 293 292 293 294 295 296 296 296 295 295 297 298 300 300 299 299 300 300 299 298 297 296 296 295 292 288 283 271 258 251 251 256 263 268 270 270 270 271 272 273 275 276 275 273 273 272 269 265 261 258 257 259 262 267 269 270 270 269 266 262 259 257